User: anonymous   Login
Location: Unspecified
(0.0000°N, 0.0000°E)
Time: 14:48:28
(UTC+00:00)
Language:

Aussat K3 - Orbit

View from above orbital plane
View from above orbital plane
View from above satellite
View from above satellite

Ground track
Ground track

The orbit data is extracted from the following two-line orbital elements,

1 18350U 87078A   18052.39667193 -.00000023 +00000-0 +00000-0 0  9993
2 18350 014.7525 015.6712 0011035 298.2724 244.9405 00.98904261015990
Epoch (UTC): 21 February 2018 09:31:12
Eccentricity: 0.0011035
inclination: 14.7525°
perigee height: 36127 km
apogee height: 36221 km
right ascension of ascending node: 15.6712°
argument of perigee: 298.2724°
revolutions per day: 0.98904261
mean anomaly at epoch: 244.9405°
orbit number at epoch: 1599

The dashed part of the orbit path shows where the satellite is in the earth's shadow,  

DLR